Flag for U.S.A. Weather past 2 weeks in Avalon (Santa Catalina Island), California, U.S.A.

Now
60 °F

Clear.


Feels Like: 60 °F
Forecast: 64 / 72 °F
Wind: 7 mph from Northwest

Location: Catalina Airport

Current Time: Feb 1, 2015 at 1:21:12 AM

Latest Report: Feb 1, 2015 at 12:51 AM


Visibility: 10 mi

Pressure: 30.01 "Hg

Humidity: 53%

Dew point: 43 °F

Location of Avalon (Santa Catalina Island)Location

Historic Weather in Avalon (Santa Catalina Island) — Graph

°F

Avalon (Santa Catalina Island) temperature yesterday

Maximum temperature yesterday: 61 °F (at 2:51 PM)
Minimum temperature yesterday: 51 °F (at 3:03 AM)
Average temperature yesterday: 56 °F

Past Weeks' High & Low Weather Summary

 TemperatureHumidityPressure
High74 °F (Jan 25, 11:51 AM)100% (Jan 30, 6:51 PM)30.24 "Hg (Jan 30, 6:51 PM)
Low49 °F (Jan 21, 5:51 AM)10% (Jan 23, 3:51 PM)29.84 "Hg (Jan 31, 4:02 AM)
Average61 °F46%30.06 "Hg
* Reported Jan 16 11:51 PM — Jan 31 11:51 PM, Avalon (Santa Catalina Island), Weather by CustomWeather, © 2014

Note: Actual official high and low records may vary slightly from our data, if they occured in-between our weather recording intervals... More about our weather records

Advertising

Avalon (Santa Catalina Island) weather history for previous 24 hours

 ConditionsComfort  
Time TempWeatherWind HumidityBarometerVisibility
11:51 PM
Jan 31
57 °FClear.9 mph69%30.00 "Hg10 mi
10:51 PM58 °FClear.13 mph58%30.00 "Hg10 mi
9:51 PM58 °FClear.10 mph60%30.00 "Hg10 mi
8:51 PM59 °FClear.8 mph54%29.98 "Hg10 mi
7:51 PM58 °FClear.10 mph62%29.98 "Hg10 mi
6:51 PM57 °FClear.5 mph69%29.96 "Hg10 mi
5:51 PM55 °FClear.6 mph90%29.94 "Hg10 mi
4:51 PM57 °FSunny.6 mph87%29.91 "Hg10 mi
3:51 PM58 °FSunny.8 mph87%29.91 "Hg9 mi
2:51 PM61 °FSunny.6 mph65%29.90 "Hg10 mi
1:51 PM60 °FSunny.No wind72%29.89 "Hg10 mi
12:51 PM58 °FPassing clouds.6 mph81%29.90 "Hg10 mi
11:51 AM60 °FSunny.3 mph75%29.91 "Hg10 mi
10:51 AM59 °FSunny.7 mph75%29.93 "Hg10 mi
9:51 AM58 °FSunny.7 mph78%29.91 "Hg10 mi
8:51 AM55 °FSunny.5 mph87%29.90 "Hg10 mi
7:51 AM52 °FSunny.7 mph97%29.88 "Hg10 mi
6:59 AM52 °FFog.6 mph97%29.88 "Hg2 mi
5:51 AM52 °FFog.No wind100%29.85 "Hg1 mi
4:54 AM51 °FFog.3 mph100%29.85 "Hg1 mi
4:02 AM52 °FFog.6 mph97%29.84 "Hg4 mi
3:03 AM51 °FFog.3 mph96%29.85 "Hg0 mi
2:56 AM52 °FFog.5 mph97%29.85 "Hg1 mi
1:58 AM52 °FFog.5 mph97%29.86 "Hg1 mi
1:00 AM52 °FFog.5 mph100%29.88 "Hg3 mi
Weather by CustomWeather, © 2014

See weather overviewHow to use our weather pages